Location: Litvinovka
(48.6667°N, 34.3500°E)
Time: 07:43:26
(UTC+00:00)

Cosmos 2278 Rocket - Pass Details

Date: 18 September 2020
Orbit: 841 x 845 km, 71.0° (Epoch: 22 October)

Event Time Altitude Azimuth Distance (km) Brightness Sun altitude
Exits shadow 19:40:43 22° 30° (NNE) 1,791 4.0 -34.0°
Drops below altitude 10° 19:42:33 10° 29° (NNE) 2,470 4.9 -34.1°
Sets 19:45:00 0° 29° (NNE) 3,409 5.7 -34.4°
